User: anonymous   Login
Location: Caltech
(34.1382°N, 118.1253°W)
Time: 22:42:33
(UTC-08:00)
Language:

SL-16 R/B - Orbit

View from above orbital plane
View from above orbital plane
View from above satellite
View from above satellite

Ground track
Ground track

The orbit data is extracted from the following two-line orbital elements,

1 28353U 04021B   16039.93527829 +.00000117 +00000-0 +86073-4 0  9999
2 28353 071.0016 034.9650 0007034 242.7175 117.3231 14.14176605602277
Epoch (UTC): 08 February 2016 22:26:48
Eccentricity: 0.0007034
inclination: 71.0016°
perigee height: 840 km
apogee height: 850 km
right ascension of ascending node: 34.9650°
argument of perigee: 242.7175°
revolutions per day: 14.14176605
mean anomaly at epoch: 117.3231°
orbit number at epoch: 60227

The dashed part of the orbit path shows where the satellite is in the earth's shadow,  

DLR